Location: *
(50.6089°N, 2.2719°E)
Time: 15:49:52
(UTC+00:00)

ADEOS Rocket - Pass Details

Date: 18 October 2019
Orbit: 859 x 1306 km, 98.7° (Epoch: 13 November)

Event Time Altitude Azimuth Distance (km) Brightness Sun altitude
Rises 18:35:37 0° 18° (NNE) 4,309 6.2 -16.9°
Reaches altitude 10° 18:38:45 10° 28° (NNE) 3,321 5.5 -17.4°
Maximum altitude 18:45:35 33° 90° (E) 1,979 4.0 -18.5°
Drops below altitude 10° 18:52:00 10° 153° (SSE) 3,124 5.3 -19.5°
Sets 18:54:51 0° 162° (SSE) 4,021 6.0 -20.0°
